GFSNW_925_thetae_000.txt.gz
Theta_e
311 313 313 316 318 321 323 320 324 316 318 325 320 322 320 316 319 319 321 321 321 322 322 322 322 322 320 318 319 319 318 320 317 317 318 318 319 320 319 317 318 320 321 320
310 312 313 314 318 319 319 324 323 315 318 330 327 319 319 318 320 319 320 321 321 320 321 323 321 321 318 318 319 320 319 320 316 318 320 319 320 319 318 318 318 321 322 321
310 311 313 313 318 317 315 322 332 322 319 318 322 322 321 320 317 318 319 319 320 321 322 321 323 322 319 318 319 313 316 319 317 314 314 315 315 315 316 317 321 319 320 319
310 311 312 313 317 316 316 321 324 319 328 323 322 321 321 320 320 318 318 319 320 321 323 321 322 321 319 317 315 319 320 318 319 317 316 316 316 316 315 316 318 320 319 317
309 311 312 313 316 316 317 324 323 317 318 318 321 319 321 320 318 319 319 320 319 318 318 316 318 316 316 315 319 318 318 319 317 317 315 315 316 316 316 316 317 317 317 317
309 311 312 313 317 316 319 313 312 321 311 318 323 322 320 319 319 318 318 319 319 320 318 317 318 318 318 317 317 319 320 320 319 323 315 316 321 317 316 315 316 316 317 315
310 311 312 313 317 316 317 314 315 327 323 319 320 318 319 319 318 320 318 318 322 316 315 316 315 314 315 317 317 317 316 319 316 322 319 324 316 314 314 315 315 314 314 314
310 311 312 313 318 317 316 311 315 320 316 318 316 318 319 318 317 318 318 318 315 316 318 320 321 317 316 314 313 314 315 318 317 319 317 316 315 314 314 314 315 314 315 315
311 312 312 313 316 318 315 312 310 316 314 322 315 318 318 321 321 320 318 314 313 316 320 321 323 321 316 316 315 311 312 313 320 317 319 320 316 312 311 313 317 314 314 314
311 312 313 313 314 319 316 315 312 315 323 314 315 320 319 317 319 322 319 318 317 316 318 322 325 321 314 317 319 317 314 313 317 317 318 317 314 312 311 318 319 314 311 310
311 312 313 313 313 317 318 315 314 316 318 315 314 313 316 315 319 324 318 320 318 317 318 316 319 318 319 316 315 316 317 319 317 315 317 318 311 312 316 316 312 310 310 310
311 312 313 314 314 314 318 318 313 312 318 317 314 315 312 315 315 318 316 319 318 321 319 313 313 317 310 321 319 313 317 316 316 316 318 314 313 312 312 310 311 311 309 307
312 312 313 313 314 313 315 316 314 312 317 317 318 319 315 313 313 314 321 316 315 316 314 317 313 315 316 315 317 320 315 313 316 315 315 315 315 313 312 310 308 306 305 305
312 313 313 313 314 314 314 315 313 312 310 311 318 310 313 314 316 316 316 314 311 311 314 308 310 314 315 316 319 317 316 314 314 315 315 314 312 312 310 308 306 305 304 301
312 313 313 313 314 315 314 314 313 313 319 319 318 311 310 311 314 316 315 315 316 315 313 306 315 315 315 313 312 317 315 315 316 316 314 313 312 308 308 308 307 303 300 299
312 312 313 313 314 315 315 319 315 314 314 317 321 312 310 310 313 315 316 316 317 317 314 312 315 315 317 312 313 313 314 313 313 313 311 310 308 306 306 305 301 299 298 298
312 312 313 313 313 315 316 317 312 314 314 314 318 316 308 306 309 309 312 312 315 315 316 314 316 317 315 309 313 313 312 309 308 307 306 307 306 306 302 300 298 298 298 298
313 312 312 313 313 313 313 313 312 313 311 309 313 310 311 306 310 310 303 308 311 313 315 308 313 312 314 313 313 308 305 305 306 306 306 306 302 301 300 299 299 299 298 296
313 313 313 311 311 310 311 312 312 312 312 315 309 312 313 306 305 304 304 306 311 307 308 308 310 310 313 313 309 305 303 306 306 303 302 301 300 300 299 298 296 296 296 295
312 311 309 301 306 310 310 310 309 304 305 305 310 310 315 310 305 305 308 306 310 312 306 303 305 308 303 301 302 303 303 304 303 302 301 300 299 296 295 295 295 294 294 293
307 300 299 301 304 306 302 304 306 303 305 302 301 302 306 302 310 308 301 305 304 311 307 309 310 310 306 302 303 302 301 301 300 298 296 295 295 295 295 295 294 293 293 293
303 302 302 302 302 300 306 305 300 303 307 301 303 302 302 299 302 305 300 305 303 309 301 304 307 306 302 301 301 300 299 297 295 294 294 294 294 294 294 293 293 292 291 290
303 300 297 300 299 306 308 309 307 306 303 301 301 302 301 299 300 300 304 306 306 299 302 305 305 302 301 301 300 299 296 295 293 293 294 294 294 293 292 291 291 290 290 290
300 301 304 305 305 305 305 306 307 301 301 302 300 299 302 297 299 300 305 298 299 303 303 305 302 300 297 296 296 295 294 292 292 293 293 293 292 291 291 290 290 289 289 289
299 302 304 303 298 300 299 299 301 298 299 300 300 298 300 298 299 298 298 299 302 302 303 301 300 296 296 295 294 294 294 293 292 293 293 292 291 290 290 290 290 290 289 288
296 297 299 297 300 299 299 299 299 297 296 296 299 300 302 300 300 299 301 301 301 301 300 299 296 296 295 295 295 293 292 292 292 292 292 291 291 290 291 290 289 289 289 288
297 296 294 296 299 302 300 300 298 296 298 301 299 301 301 295 299 299 297 298 298 298 297 295 294 295 295 294 294 292 291 291 291 292 292 292 291 290 289 290 291 290 289 288

GFSNW_925_thetae_003.txt.gz
Theta_e
311 313 314 317 319 319 320 322 324 323 322 325 330 327 323 317 321 322 323 323 323 324 323 324 324 323 323 320 320 321 319 320 320 318 320 321 321 321 319 319 318 319 321 322
310 312 313 317 318 322 324 323 325 323 325 333 333 324 322 322 322 322 323 324 323 323 324 325 323 323 321 320 321 322 320 323 321 320 322 321 320 320 318 319 318 321 327 322
309 311 312 316 317 319 322 324 331 325 326 324 324 324 323 323 321 322 322 323 323 323 323 323 324 324 321 321 321 314 318 320 319 319 317 316 316 316 315 317 321 321 321 320
309 310 312 315 317 315 321 325 327 325 328 327 324 324 323 323 322 321 321 322 322 323 324 323 323 322 321 319 316 319 320 320 320 318 316 315 316 316 316 316 317 320 320 319
308 310 311 315 317 314 322 323 325 322 325 324 324 321 323 322 321 321 321 322 321 321 322 317 319 318 317 317 319 319 319 322 319 318 316 315 316 315 315 316 317 317 317 317
308 310 311 315 316 317 321 319 320 325 316 325 326 325 323 321 321 321 320 321 319 321 319 320 320 320 319 318 320 320 321 321 320 322 319 318 323 319 316 316 316 317 319 317
308 310 312 315 316 317 322 320 321 329 326 325 324 321 321 321 321 321 320 319 322 320 318 318 318 318 319 320 319 319 322 320 321 323 320 327 319 316 315 315 315 315 315 316
308 310 312 314 317 316 319 315 321 324 329 323 321 321 321 320 320 321 321 320 320 319 320 322 321 318 315 318 316 317 319 321 320 323 320 318 317 315 315 315 316 315 317 317
309 310 312 313 318 316 319 316 316 322 320 326 320 322 322 323 323 323 321 318 318 321 324 322 325 322 318 319 318 315 317 319 322 321 321 322 319 316 314 315 318 317 316 316
310 310 312 313 316 317 321 318 313 321 327 319 320 323 323 321 322 323 322 321 321 321 322 326 327 323 318 318 320 316 317 317 322 319 321 318 315 314 314 318 320 317 314 313
310 311 312 313 313 318 320 318 314 322 323 319 318 318 321 321 321 326 323 322 322 324 319 322 324 323 320 319 316 317 319 321 318 319 320 319 314 314 318 317 315 314 312 312
311 311 312 313 314 315 319 322 313 318 322 321 318 318 317 319 319 321 322 321 322 322 325 321 321 324 316 321 321 316 318 318 319 318 318 315 315 315 316 314 314 312 311 309
312 312 313 313 314 314 316 321 316 320 325 321 320 320 318 316 318 319 323 322 320 321 321 321 319 314 319 318 321 321 316 316 319 318 315 314 314 315 314 313 312 310 309 309
312 312 312 313 315 314 315 320 316 319 318 318 324 314 318 316 318 319 320 318 318 318 319 314 312 316 319 320 319 319 318 317 317 318 316 315 314 313 313 312 310 309 308 306
312 313 313 313 314 314 317 318 316 317 323 324 323 316 314 315 319 319 318 318 319 320 316 311 315 320 320 319 317 319 316 316 320 320 315 315 314 312 312 311 310 308 305 303
311 312 313 313 315 315 319 321 319 315 320 323 325 317 315 315 317 319 319 318 320 320 320 314 319 318 319 315 318 314 314 314 314 316 313 312 310 309 308 308 306 303 301 301
311 312 313 313 314 316 318 319 317 315 319 321 321 322 313 312 316 317 318 318 319 320 318 318 318 319 317 315 317 313 313 313 312 311 310 310 309 310 306 304 302 301 301 299
312 311 313 313 313 314 316 315 313 315 318 318 320 316 315 311 316 316 311 315 315 317 318 315 316 317 317 318 314 313 313 310 309 308 308 310 307 305 303 301 301 299 298 297
312 312 312 313 313 313 316 314 313 313 317 319 311 314 315 311 310 309 308 310 315 312 314 314 314 314 316 315 314 313 310 310 310 308 306 305 303 302 300 299 298 297 297 295
313 310 310 304 308 312 312 313 316 313 313 313 312 314 314 313 308 308 309 308 312 313 310 305 306 310 312 311 310 309 308 307 307 306 305 303 301 299 297 297 296 296 295 294
306 301 300 302 306 307 307 307 311 309 308 307 311 312 312 308 311 309 306 308 307 313 310 310 312 311 311 308 306 305 305 305 304 303 300 297 297 296 296 296 295 294 294 294
303 302 302 304 302 302 312 307 302 306 311 304 304 306 309 303 305 304 300 305 305 313 307 309 310 310 308 306 306 304 303 302 299 297 296 295 295 295 295 295 294 294 293 292
300 297 297 299 298 305 308 309 308 307 302 300 301 302 300 300 301 301 304 307 310 304 306 308 310 307 305 306 304 302 300 297 295 295 295 294 294 294 294 294 293 292 292 293
298 299 304 304 306 305 306 307 305 302 302 301 300 300 302 299 303 303 308 303 303 307 307 308 306 305 304 303 302 301 298 294 293 293 294 294 294 294 293 292 292 291 291 292
300 301 305 304 300 299 298 299 300 299 301 302 304 303 305 304 303 304 302 302 306 306 307 306 303 302 300 299 297 296 295 295 294 293 293 293 293 293 293 293 292 293 292 291
299 299 301 299 302 301 299 299 299 299 299 301 303 304 305 304 304 303 305 306 305 305 304 303 300 298 297 297 297 296 295 293 293 292 292 293 293 293 293 293 292 291 291 291
300 299 299 300 302 302 299 301 300 299 301 303 303 304 305 299 303 304 302 303 303 302 301 299 297 297 297 297 297 295 294 294 293 293 293 293 293 293 292 292 293 293 292 291

GFSNW_925_thetae_006.txt.gz
Theta_e
311 312 316 317 318 317 319 325 323 326 319 322 325 331 324 318 322 323 324 323 322 323 323 324 324 324 324 320 320 321 318 320 327 320 319 319 320 321 319 328 322 326 325 320
311 312 315 317 318 317 323 324 327 326 326 331 340 325 323 322 321 321 322 324 324 324 324 325 324 325 321 321 322 322 320 325 328 323 323 320 319 320 318 321 322 321 328 324
310 311 313 317 319 320 321 327 331 323 324 329 329 326 324 324 323 323 323 323 323 324 324 324 324 324 322 320 320 315 319 320 320 323 318 317 317 316 316 316 327 323 323 319
309 310 312 316 317 319 318 328 327 322 328 328 326 325 323 324 324 322 322 322 323 324 324 324 324 323 321 319 315 319 320 322 320 318 316 316 316 316 316 316 317 319 319 317
309 310 312 316 316 315 322 328 326 325 326 326 325 322 324 323 322 323 322 323 323 323 325 321 322 320 319 320 320 320 320 325 321 320 317 316 316 315 315 315 315 316 317 317
308 310 311 316 316 317 324 322 324 326 321 326 328 327 324 323 323 323 321 322 323 324 322 321 321 320 320 319 321 321 323 325 323 325 319 319 325 321 317 316 316 316 319 317
308 309 311 316 316 319 325 325 323 333 331 328 325 324 323 323 323 322 321 321 324 321 318 319 319 320 320 320 319 321 322 322 322 323 321 327 319 316 316 316 316 315 315 316
308 310 311 314 317 318 322 319 326 327 324 327 324 323 322 322 321 322 323 321 320 320 320 325 318 319 316 318 317 318 320 323 318 325 321 318 317 317 316 316 317 315 318 317
309 310 311 313 318 317 322 315 321 326 323 330 322 322 323 325 326 324 322 321 320 320 328 324 321 327 320 321 318 316 319 322 325 319 320 320 319 316 315 315 319 318 317 316
309 310 311 313 316 317 323 320 316 327 332 322 323 325 326 323 324 325 323 322 323 322 322 321 331 326 318 322 321 318 316 318 320 320 319 319 315 315 314 318 320 317 316 314
310 310 311 313 313 318 323 321 314 326 327 321 321 322 323 322 324 329 324 324 326 329 319 323 327 324 324 322 318 318 317 320 317 319 319 319 315 314 317 319 317 315 314 312
310 311 312 313 313 315 320 324 316 322 326 323 321 320 320 320 321 324 325 322 324 326 325 325 324 323 318 321 325 316 321 322 323 320 320 318 316 316 316 315 316 313 312 310
311 311 312 313 314 314 318 323 319 323 330 323 321 320 319 319 320 321 327 328 321 323 323 320 317 313 321 318 323 320 316 315 324 321 317 315 316 315 315 314 313 311 310 309
312 312 312 313 314 314 317 322 319 322 319 313 326 318 319 318 319 320 322 322 321 323 320 312 312 313 320 322 321 322 320 317 318 319 317 316 315 314 314 312 311 310 309 308
312 312 312 313 314 314 319 321 320 320 325 320 326 318 318 318 320 320 320 321 323 324 317 309 314 322 324 324 320 322 317 316 319 320 317 317 316 312 310 310 310 309 307 304
311 312 313 313 314 315 321 321 320 319 322 320 320 320 318 318 319 320 319 320 322 323 320 315 320 320 323 318 319 316 314 314 314 316 315 314 313 311 309 309 306 304 303 302
310 311 313 313 314 317 319 319 316 316 321 319 317 323 316 315 318 320 321 320 322 321 323 322 319 322 319 312 317 314 313 313 313 313 313 312 311 310 309 305 303 302 301 299
311 311 312 313 313 314 317 316 314 317 321 319 321 317 316 314 320 320 313 317 317 319 320 318 318 320 318 319 316 315 313 313 312 310 310 310 309 308 305 303 301 299 298 297
311 311 312 313 313 316 317 315 314 315 319 321 309 314 316 314 310 309 311 313 315 314 313 315 316 316 316 316 314 313 313 312 311 310 309 307 305 303 302 300 298 297 297 296
311 311 310 304 309 312 313 314 318 316 319 316 312 316 317 314 310 310 309 308 313 313 311 307 308 313 313 313 313 313 311 310 310 309 307 305 303 301 298 297 297 297 296 295
306 303 301 303 307 310 310 310 313 311 313 311 311 314 312 310 311 309 308 308 309 312 312 312 311 311 311 311 311 309 308 308 307 306 304 300 298 297 297 298 297 295 295 294
303 303 303 304 302 301 311 308 305 308 315 307 306 309 311 307 310 309 303 308 305 312 307 307 312 311 311 310 308 307 306 305 302 300 298 297 296 296 296 296 296 295 294 293
302 299 298 301 298 305 308 310 308 308 302 301 302 303 302 301 303 301 303 307 309 304 309 309 310 309 307 308 307 305 300 297 297 297 296 295 295 294 293 294 293 293 293 292
298 299 304 304 306 305 304 304 302 300 300 300 300 300 302 298 302 301 307 305 305 308 309 309 309 306 306 306 305 302 297 292 294 294 294 294 294 294 293 293 292 292 292 292
301 301 305 304 300 299 298 296 298 297 299 299 300 300 302 301 302 302 304 304 307 308 310 306 304 302 301 300 300 296 295 293 294 295 294 293 292 293 293 293 293 293 293 293
300 301 302 300 302 301 298 297 298 299 298 300 302 302 305 305 304 305 307 307 308 308 306 304 299 299 299 298 297 297 296 294 294 294 293 293 293 293 293 294 294 293 292 292
299 300 300 300 301 301 300 300 300 299 300 302 303 306 303 301 304 305 304 306 305 304 303 299 298 297 298 297 297 296 295 295 295 294 294 293 293 294 294 293 293 294 294 294

GFSNW_925_thetae_012.txt.gz
Theta_e
312 312 316 315 315 314 316 320 317 326 325 309 316 322 325 319 320 320 321 322 323 320 322 324 324 323 321 319 320 316 316 315 315 319 317 317 317 318 316 312 319 312 312 313
311 312 316 316 315 315 317 318 320 327 327 309 312 320 322 320 320 321 321 322 322 322 322 324 324 322 319 316 317 319 316 316 316 320 319 317 318 317 318 314 309 311 308 311
311 312 316 316 316 317 323 319 317 317 318 315 318 324 322 322 320 321 321 321 321 321 322 322 323 322 320 316 314 314 317 317 315 318 318 314 314 314 317 315 312 314 312 314
310 311 315 317 317 318 320 321 318 313 314 315 322 323 322 322 322 321 320 321 322 321 323 323 323 321 319 317 313 317 316 318 317 315 314 314 314 314 313 314 315 314 313 315
310 311 315 316 317 316 319 323 322 316 312 315 321 321 322 322 322 321 322 320 321 320 321 320 322 319 318 317 317 318 316 315 314 316 315 315 314 313 313 313 313 313 314 317
310 311 316 315 317 318 319 321 322 316 316 314 319 320 321 322 321 320 320 319 318 317 319 316 315 315 316 317 317 319 315 310 308 312 312 313 310 314 316 315 314 313 313 314
310 312 316 316 315 317 325 323 321 316 315 318 319 323 322 321 320 321 320 317 316 318 314 310 309 309 312 316 316 314 312 311 303 305 303 305 313 313 313 314 314 314 314 312
310 312 316 316 319 321 321 322 321 312 309 319 322 322 321 320 319 320 320 318 315 312 312 307 308 307 308 310 315 317 312 304 306 303 309 306 312 314 314 313 314 314 314 312
310 311 315 317 319 318 317 322 325 312 311 316 322 319 319 318 318 317 320 318 317 311 304 304 309 309 308 314 317 312 311 304 304 308 302 302 307 314 312 312 312 314 312 311
310 311 313 317 320 320 315 317 323 321 315 317 320 318 319 316 315 316 319 319 318 309 301 311 310 314 313 314 312 308 306 302 305 299 300 306 307 312 312 312 310 313 311 309
310 311 312 315 319 321 318 320 324 321 313 316 319 319 318 318 315 314 315 313 310 306 306 304 310 310 309 311 312 310 309 307 306 303 301 309 309 312 311 308 311 311 309 308
310 310 312 313 317 323 320 319 322 321 315 316 318 318 319 319 316 315 314 312 314 310 309 308 311 309 311 307 312 311 312 308 309 310 310 308 309 310 309 310 311 309 307 307
310 310 311 312 315 323 318 319 322 320 308 312 315 318 318 319 320 318 315 311 317 316 308 307 305 305 306 310 311 313 311 312 309 311 312 311 311 312 311 310 309 308 307 306
310 310 311 312 317 320 319 319 321 317 306 305 314 317 318 318 320 321 319 317 316 310 305 306 308 304 308 304 307 307 308 312 313 309 311 313 313 312 309 308 307 307 307 308
311 311 311 313 316 319 318 318 318 322 313 309 309 315 317 318 320 320 320 318 314 309 305 303 306 300 306 301 302 306 311 311 310 312 310 310 311 309 308 308 309 310 307 299
312 312 312 312 314 319 320 315 317 321 320 308 308 311 312 316 319 318 317 317 314 310 307 304 306 311 306 310 314 311 313 312 310 311 311 312 310 308 308 308 306 303 300 296
312 312 313 313 315 319 315 311 315 318 317 305 309 307 308 312 315 310 311 313 312 312 306 304 304 307 310 306 310 311 311 312 311 311 310 310 308 308 307 302 301 297 295 294
311 312 313 313 315 316 317 313 317 319 314 304 307 305 305 311 304 307 305 305 309 309 309 306 308 305 303 311 311 312 312 312 310 310 309 308 307 306 302 300 296 295 294 293
311 311 311 311 313 312 315 314 315 316 313 308 302 309 310 306 305 302 301 304 306 305 308 307 308 307 314 312 311 312 311 311 310 308 307 307 306 302 297 296 296 294 293 293
311 311 310 305 308 311 312 313 304 304 305 302 304 304 310 308 301 303 303 301 305 311 308 306 306 310 308 307 310 309 308 308 307 307 305 300 299 297 297 296 295 294 293 293
311 304 301 307 310 311 303 306 304 305 307 306 305 305 308 301 307 306 300 305 304 311 305 310 306 308 305 305 306 306 304 303 302 302 300 298 297 297 296 294 293 293 293 292
306 305 305 306 302 302 308 307 304 306 309 302 305 304 305 301 302 304 302 307 304 309 303 308 309 305 304 303 301 299 299 299 298 297 297 296 296 295 293 292 291 292 293 293
303 301 298 304 298 307 311 313 308 307 300 300 300 304 299 300 301 301 303 307 308 301 307 308 305 306 299 298 298 297 296 296 296 296 296 294 292 291 291 291 291 292 291 292
298 301 303 304 303 302 301 301 302 298 297 298 298 299 301 298 302 301 306 303 302 306 306 302 303 302 299 298 297 296 294 292 292 292 292 292 292 292 292 292 292 292 292 292
299 298 303 299 297 297 297 296 297 295 296 297 298 298 300 300 301 301 301 302 304 304 304 301 298 299 297 295 293 292 291 291 292 292 292 292 292 292 292 292 292 292 293 293
297 297 299 298 299 299 298 297 297 295 295 295 297 301 303 301 301 301 303 304 303 303 300 297 296 297 295 295 293 293 293 293 293 293 293 292 292 292 292 292 292 292 292 292
296 297 296 296 297 298 298 296 297 297 297 300 300 300 300 298 301 302 301 301 300 298 297 294 294 295 294 293 294 294 294 293 293 293 293 292 292 292 292 291 292 293 293 293

GFSNW_925_thetae_015.txt.gz
Theta_e
311 312 313 314 312 313 317 314 310 326 322 309 313 320 323 321 319 319 321 321 320 318 321 323 322 322 320 317 319 316 316 313 315 317 315 316 316 316 312 311 317 310 310 312
311 312 315 314 313 314 319 314 321 325 317 308 310 316 322 319 319 320 321 321 321 320 322 322 322 321 318 313 316 318 315 314 316 319 317 314 318 316 314 310 307 313 308 309
311 312 315 314 314 314 320 314 318 315 315 309 312 320 322 321 319 320 320 320 320 320 322 320 321 321 319 313 313 313 314 315 313 316 317 314 313 315 315 312 310 312 309 311
311 312 316 315 314 315 322 317 314 314 316 317 322 319 320 321 321 320 319 320 321 320 322 322 322 320 318 314 313 315 313 316 315 313 313 313 313 312 314 315 313 313 312 313
311 313 316 316 315 318 318 321 316 312 309 313 319 320 322 320 321 320 321 319 320 319 319 319 321 317 315 314 316 317 313 313 311 316 313 314 313 311 310 310 311 313 311 313
311 314 315 316 315 317 316 318 319 313 312 313 317 318 321 320 319 319 318 318 317 316 318 315 314 314 314 315 316 317 312 309 306 307 310 310 305 310 313 312 312 311 312 312
311 315 315 316 316 316 320 322 317 314 313 311 315 320 320 320 319 320 318 316 316 316 310 309 308 308 312 315 315 312 310 307 301 304 303 304 308 310 311 312 313 314 313 311
312 315 316 315 316 316 323 321 317 311 307 316 320 320 319 318 317 319 319 318 314 311 306 307 310 306 307 310 314 312 310 303 305 303 306 305 309 312 312 312 311 312 312 310
312 315 317 318 316 317 320 323 318 311 314 317 318 318 317 316 315 316 318 316 312 308 301 303 305 306 308 313 316 311 307 301 303 304 300 301 305 312 311 310 312 312 310 309
312 314 317 321 319 319 320 321 322 316 313 315 317 317 316 313 313 314 318 318 316 307 300 301 306 312 309 313 311 308 305 300 302 294 299 304 305 311 310 312 308 311 310 309
312 313 316 320 316 315 318 322 323 318 310 316 318 318 316 315 314 313 314 312 309 303 306 303 304 305 308 310 311 311 310 309 305 303 302 308 307 310 312 309 308 311 309 308
311 312 314 319 320 318 320 321 320 318 313 315 317 318 318 318 314 313 311 313 311 309 306 301 306 307 309 306 311 309 310 307 308 308 309 307 307 310 308 308 310 309 308 307
310 311 312 318 322 321 318 322 321 316 307 312 314 317 317 319 318 317 313 308 313 311 306 307 302 304 303 309 309 311 310 308 307 309 310 308 307 308 309 308 309 307 306 306
310 311 312 318 320 318 318 320 317 313 303 306 313 316 316 318 320 320 315 314 312 306 303 303 303 302 306 304 307 307 308 309 310 308 309 310 311 309 310 309 307 307 306 306
310 310 313 318 318 318 318 320 320 319 311 308 307 313 316 316 319 319 317 314 311 307 304 303 306 299 304 302 301 306 309 310 308 310 308 311 309 310 307 307 307 307 306 302
311 311 312 316 317 316 314 309 316 320 315 307 309 309 310 314 317 316 315 314 310 308 306 303 303 306 305 309 313 310 310 311 307 309 307 307 309 308 306 307 307 306 298 295
311 312 312 313 317 318 311 307 314 319 314 304 308 305 306 310 311 307 309 310 310 310 306 303 305 307 308 306 310 310 310 310 310 309 309 311 308 309 307 304 300 297 294 293
312 312 314 315 315 315 314 315 318 317 311 302 305 304 304 308 304 307 304 305 307 308 308 305 307 304 303 309 310 310 311 310 309 309 309 309 307 304 300 296 295 294 294 293
312 312 312 312 312 311 313 313 315 315 311 305 302 306 308 304 304 301 301 303 306 305 307 306 306 307 311 312 312 311 310 311 310 309 308 306 305 302 296 296 296 296 294 292
311 310 308 305 307 310 312 312 303 302 305 301 302 303 308 308 301 303 303 300 305 309 307 306 306 310 307 305 305 305 307 307 307 306 305 299 298 298 298 297 296 295 293 292
310 306 302 308 309 309 303 305 304 305 308 305 303 303 308 303 307 307 300 305 303 312 304 310 309 307 304 301 298 298 298 301 300 300 298 298 297 296 295 293 293 292 292 291
307 306 306 306 300 301 306 306 304 306 308 302 304 303 305 301 300 305 302 306 304 311 302 308 308 301 297 297 297 297 297 297 297 297 297 297 297 297 296 293 291 291 292 292
305 302 300 305 300 309 311 312 307 306 300 300 300 304 299 300 301 301 303 307 308 301 307 308 305 300 300 298 297 297 297 296 296 297 297 296 292 291 290 290 290 291 291 291
299 301 305 304 303 301 301 302 302 297 297 298 298 299 301 298 302 301 307 303 302 307 306 302 301 300 298 297 296 295 295 292 293 292 291 291 291 291 291 291 291 291 291 291
298 298 301 297 297 297 296 296 297 295 295 297 299 298 300 300 302 300 301 301 303 302 299 301 298 296 295 294 293 292 291 290 291 291 291 291 292 292 291 291 291 291 292 292
297 297 299 297 299 299 298 297 298 295 295 295 297 301 301 301 300 301 302 300 298 298 297 298 297 296 294 295 293 292 293 293 292 292 292 292 291 291 291 292 292 292 292 292
297 297 296 297 297 298 297 296 297 296 297 300 299 297 298 297 300 301 301 300 299 298 297 295 295 295 294 294 294 293 293 293 292 291 291 291 291 292 291 291 292 292 292 292

GFSNW_925_thetae_018.txt.gz
Theta_e
309 311 312 312 313 312 315 309 310 325 318 310 310 317 321 321 317 318 320 318 317 316 319 321 321 320 318 315 318 316 314 313 314 316 315 315 315 315 311 310 314 309 309 310
310 311 312 312 313 312 318 312 320 322 311 309 309 314 320 319 318 319 320 320 319 319 320 321 320 320 317 312 315 315 313 314 316 315 313 313 317 315 311 308 307 314 308 309
310 311 311 313 313 313 318 314 319 315 310 308 311 315 320 320 318 319 318 319 318 319 321 318 320 320 317 312 313 313 312 313 312 314 313 312 314 316 312 310 308 310 309 310
310 311 312 315 312 314 319 311 315 315 317 317 312 314 319 320 321 319 317 319 319 319 321 321 320 319 316 313 313 315 311 314 313 313 312 312 312 312 313 312 311 312 311 308
310 311 314 314 312 315 317 319 313 307 310 316 319 315 318 319 320 319 320 319 319 318 319 317 319 316 313 310 315 316 311 312 310 315 312 311 313 310 309 311 311 311 311 311
310 311 315 314 314 316 314 317 314 310 308 313 317 317 320 319 318 318 317 317 316 317 318 315 313 311 311 313 315 314 310 308 305 306 308 306 306 308 309 309 309 309 311 309
310 313 315 315 314 316 318 319 315 312 309 310 316 318 319 319 317 318 317 315 314 314 307 307 308 307 311 313 312 310 308 305 299 303 302 304 308 309 309 310 310 308 311 311
312 315 315 315 315 317 322 321 316 310 304 308 315 318 318 316 316 318 317 316 312 308 306 308 312 307 308 309 310 307 306 302 303 303 304 305 307 308 311 311 311 310 311 310
314 315 315 316 315 317 321 321 319 311 310 313 315 317 316 315 314 315 317 314 309 305 300 303 307 311 312 312 315 309 305 301 302 298 301 301 305 308 309 310 311 309 309 308
314 316 316 315 315 316 319 322 320 314 313 314 315 315 316 311 311 313 315 315 315 306 299 300 303 307 307 311 310 310 305 302 301 293 298 303 304 309 309 311 309 309 308 307
314 317 320 316 315 316 319 320 322 315 310 315 317 316 313 313 312 312 312 312 309 302 306 303 303 302 307 309 309 311 310 310 303 300 298 308 305 311 311 309 306 309 307 306
313 315 320 319 318 318 317 320 316 316 312 314 316 316 317 317 312 311 309 313 311 309 305 298 300 307 304 305 309 308 310 307 307 306 308 305 305 309 307 306 307 309 308 307
312 315 320 319 318 319 320 320 316 316 307 311 313 316 317 318 317 315 312 306 310 308 304 301 299 303 302 306 307 310 308 306 305 308 308 306 305 305 306 307 307 308 307 306
312 316 320 320 319 319 320 318 313 311 303 306 312 315 315 316 318 318 314 311 308 304 302 300 302 302 303 302 305 306 307 307 308 306 307 307 307 307 306 306 307 307 306 306
312 317 318 318 318 318 318 319 317 313 308 307 306 312 313 315 317 315 314 310 309 306 303 303 305 298 302 301 302 304 307 308 307 308 307 307 307 308 308 308 308 307 306 304
311 315 317 317 317 315 312 308 318 315 313 308 310 307 308 312 314 313 312 311 307 307 306 302 302 304 303 308 309 308 308 307 306 308 307 305 306 307 308 308 306 304 299 296
311 311 314 316 315 311 308 306 314 316 311 304 308 305 305 307 309 306 307 309 307 307 305 301 302 305 304 302 305 310 308 308 308 307 308 310 308 309 306 305 298 295 294 294
313 314 314 314 315 315 314 314 316 314 309 300 304 303 304 306 304 307 304 304 307 307 307 304 304 304 303 310 308 308 309 309 309 308 307 308 306 302 297 296 295 294 296 296
313 314 314 312 312 310 312 314 315 313 309 303 301 306 307 304 303 301 302 303 307 304 307 305 308 305 311 308 304 305 305 306 307 307 307 305 300 295 295 296 297 298 296 294
310 310 308 304 307 309 311 310 303 302 301 303 303 302 307 309 301 304 303 301 307 312 305 306 307 308 304 298 297 297 298 300 304 307 301 296 297 298 298 297 297 296 295 292
309 302 302 308 308 307 299 302 303 306 307 304 303 303 306 303 308 307 299 307 303 311 307 309 308 307 298 297 297 296 296 297 297 297 297 297 297 297 296 295 294 293 292 291
308 306 306 306 300 301 305 304 303 306 308 301 304 303 305 300 299 305 302 306 304 310 303 307 308 299 298 297 297 297 297 297 296 296 296 296 296 296 295 294 292 291 291 291
306 302 298 304 300 309 304 310 308 307 300 299 300 303 299 300 300 302 304 308 308 301 306 308 304 302 300 298 297 296 295 294 294 294 294 294 293 292 290 289 289 290 290 290
300 303 307 304 305 302 301 302 302 297 297 298 298 299 301 298 303 301 308 303 302 307 306 303 300 299 296 295 295 296 293 291 292 291 291 290 290 290 291 291 291 291 291 291
299 298 302 299 297 296 296 296 297 295 295 297 299 299 300 301 302 300 301 298 298 297 296 300 297 295 295 294 294 291 291 289 290 291 291 290 290 290 291 291 291 291 291 292
296 297 299 297 299 298 298 297 298 295 296 295 297 301 301 300 301 300 300 298 295 294 297 297 295 294 294 294 293 292 293 293 292 292 292 291 291 290 290 291 291 291 291 291
297 298 296 297 298 298 297 296 296 296 297 300 299 296 298 297 298 299 299 298 297 298 297 295 295 294 294 293 293 293 292 292 291 290 290 290 290 290 290 289 290 290 291 290

GFSNW_925_thetae_021.txt.gz
Theta_e
312 309 309 311 311 311 312 309 313 322 316 313 311 316 316 321 319 317 319 316 317 317 318 320 320 320 318 315 318 318 314 317 320 316 315 315 315 316 316 319 316 314 315 316
311 309 309 311 311 312 314 310 320 318 309 314 312 313 319 320 317 318 319 320 318 319 321 321 320 320 315 312 315 318 315 317 321 319 316 315 317 315 311 311 313 316 325 316
309 308 310 311 311 312 315 316 322 318 309 308 313 316 319 319 317 318 317 318 318 320 321 319 321 320 316 312 314 313 314 314 317 319 315 314 316 316 312 314 317 314 317 315
308 308 311 311 311 312 316 312 317 318 318 312 311 312 317 319 320 318 316 319 318 320 322 320 320 319 315 313 314 315 314 317 314 313 313 312 311 314 314 313 313 318 314 312
307 309 311 311 312 312 314 314 314 308 312 314 313 313 319 319 319 318 319 320 318 318 320 319 321 318 314 312 316 316 312 316 312 315 313 312 314 312 312 314 313 312 312 314
308 310 311 311 313 313 314 315 310 311 307 315 313 315 317 318 319 317 316 317 317 318 318 315 313 312 313 313 317 314 313 312 312 313 309 308 312 312 312 311 311 314 315 315
309 310 310 313 313 314 317 318 311 312 309 312 314 317 318 318 317 319 316 315 316 313 310 309 311 311 312 313 311 310 309 307 305 312 306 313 311 310 310 311 311 310 310 310
309 310 312 314 313 314 320 319 314 310 307 309 314 317 317 317 316 318 317 316 311 309 309 313 314 313 312 311 309 307 307 307 307 315 311 308 309 306 311 313 313 311 311 311
310 311 314 315 313 314 319 320 316 310 310 311 313 317 315 316 315 316 315 311 308 305 305 309 315 318 315 312 315 309 305 304 312 306 311 312 309 305 310 311 317 311 311 311
311 314 315 315 313 314 320 319 315 314 314 314 314 317 317 312 313 315 313 313 314 306 306 310 313 314 308 312 312 312 312 308 312 303 313 310 306 308 309 315 315 308 311 311
314 315 315 315 314 314 319 320 320 315 312 315 316 313 313 313 314 317 314 315 313 308 312 313 310 312 311 311 310 313 314 314 313 304 309 315 306 311 315 314 308 309 310 310
316 317 315 316 314 315 317 319 315 316 314 315 315 315 315 316 311 313 310 316 312 312 311 305 305 311 307 308 316 308 313 312 315 311 314 308 306 312 310 308 309 310 311 310
318 319 316 315 315 315 316 318 317 314 309 313 314 316 316 316 315 313 315 308 311 309 306 305 306 310 307 313 312 311 309 306 311 310 310 307 307 307 307 307 309 309 309 310
320 318 317 315 316 318 318 318 316 311 306 309 314 314 313 315 316 316 312 309 306 304 305 304 306 310 305 308 309 310 310 308 309 309 309 308 308 308 310 310 307 307 308 309
318 319 318 317 319 318 316 314 313 310 310 310 309 310 311 313 314 312 310 309 309 308 307 305 309 303 306 303 305 308 308 311 313 315 311 310 310 307 308 310 310 309 309 306
317 318 318 318 319 317 316 312 316 312 312 310 311 306 307 310 312 311 310 310 308 308 309 306 305 304 307 310 311 310 307 308 307 310 307 307 308 307 308 309 309 306 305 300
317 317 316 315 312 310 307 308 312 312 310 306 308 308 305 306 307 306 308 309 308 310 307 304 305 307 305 306 312 309 308 308 308 308 308 311 309 311 306 301 296 295 295 296
314 314 314 314 314 315 314 311 313 311 307 302 306 306 307 305 307 307 304 307 308 308 307 304 306 306 306 312 307 303 302 302 308 306 307 307 301 298 296 296 298 298 298 296
313 312 311 310 311 309 312 311 312 312 308 305 300 308 311 305 304 302 304 304 309 305 308 308 310 306 310 302 300 299 299 299 301 302 297 297 298 298 299 298 297 296 294 293
310 310 308 304 308 308 309 309 304 303 301 304 303 302 307 308 303 304 304 302 308 311 309 306 308 307 298 298 298 298 297 298 300 302 298 298 299 297 297 296 295 294 293 292
309 303 304 308 307 307 300 303 305 305 305 304 303 304 307 303 310 307 301 307 305 312 309 311 309 306 298 297 298 297 297 297 297 298 297 297 296 296 295 294 294 294 293 292
307 307 306 305 302 301 306 305 303 306 308 302 304 304 305 301 301 307 303 307 305 312 304 308 308 300 299 298 297 296 296 296 296 296 295 295 295 295 295 294 293 291 291 291
307 302 299 304 301 307 303 310 308 307 301 300 300 304 300 301 300 302 306 310 309 302 308 309 303 301 298 297 296 295 294 294 294 294 294 292 292 291 291 290 290 290 290 290
298 301 305 302 307 303 303 304 303 298 298 298 299 300 302 299 304 302 310 303 303 309 308 305 301 298 297 296 296 295 294 291 292 291 291 290 290 290 290 290 290 290 290 290
298 300 301 299 297 297 296 296 297 295 296 297 300 300 302 302 303 301 302 301 303 302 301 300 297 296 296 295 294 292 291 288 290 291 291 290 289 289 289 289 289 289 290 290
296 297 299 297 299 299 298 298 298 296 295 296 298 301 303 302 302 303 304 302 300 298 299 297 295 295 295 294 293 292 292 292 291 290 290 290 289 289 288 289 288 287 287 287
297 298 295 297 298 298 297 296 296 295 297 301 300 302 301 298 301 301 300 300 298 298 296 295 294 295 294 294 294 293 291 290 289 289 288 287 287 286 285 285 285 283 284 283

GFSNW_925_thetae_024.txt.gz
Theta_e
308 307 314 314 309 311 311 316 321 321 320 326 323 322 320 322 322 322 320 321 321 321 321 322 320 321 321 320 321 322 320 323 325 322 319 319 320 321 319 319 319 320 321 317
306 308 314 313 309 310 313 318 324 319 314 326 325 320 320 324 321 322 322 322 322 323 324 324 324 323 318 317 320 323 320 323 325 323 320 319 320 320 318 318 319 320 328 316
306 311 313 310 310 311 316 320 326 325 319 317 320 320 321 321 321 322 322 323 324 324 324 324 325 324 319 316 318 312 316 322 323 325 320 320 321 320 317 317 319 317 319 315
304 311 313 309 310 311 315 322 323 323 324 318 320 320 320 320 323 321 322 323 324 324 326 325 325 323 318 318 316 320 321 323 320 317 317 317 317 319 318 318 318 318 315 315
302 309 312 309 311 311 317 321 323 320 322 318 318 317 321 319 322 323 323 325 324 324 326 323 326 324 320 321 320 322 318 322 319 320 317 316 317 317 317 318 318 318 317 317
305 311 309 309 311 312 318 319 315 321 315 318 319 318 319 319 324 321 321 324 324 325 323 321 322 319 319 318 322 322 321 321 319 319 314 315 320 318 317 316 317 318 318 317
308 311 308 310 311 313 318 321 318 323 322 319 317 317 318 322 323 325 320 322 324 319 317 317 318 318 318 317 316 317 318 318 316 322 314 329 315 313 313 316 316 316 315 315
310 310 308 310 311 313 320 319 320 322 322 319 317 317 318 322 321 323 322 320 317 317 318 323 322 323 324 319 314 314 314 316 317 327 317 314 311 311 312 314 314 315 315 314
308 308 310 310 311 312 319 320 315 322 323 320 317 318 321 324 325 323 318 314 313 313 319 324 328 327 322 320 320 313 311 313 319 316 332 333 315 312 313 314 316 312 315 316
308 309 310 310 313 313 320 317 315 321 326 318 320 320 321 322 323 325 318 316 317 314 323 334 330 325 315 319 319 320 321 318 325 320 327 318 313 310 313 316 314 315 315 316
309 310 310 312 313 313 320 318 316 323 324 319 320 318 320 320 323 327 319 320 319 319 328 330 324 328 318 317 315 319 321 323 325 317 326 326 310 314 318 316 316 315 315 316
310 310 312 313 313 313 320 319 316 318 323 322 318 317 317 319 320 322 319 324 321 322 325 322 320 321 314 321 323 313 319 319 320 318 319 313 312 315 315 314 315 315 315 314
313 313 314 314 312 313 318 318 317 319 322 320 322 321 317 316 317 316 323 319 319 318 317 320 321 323 319 323 322 318 315 313 317 315 314 314 313 312 312 312 313 313 313 313
315 315 314 314 313 314 317 318 315 317 320 318 322 315 316 314 317 317 316 317 313 313 316 321 316 326 314 320 317 318 316 313 315 315 314 314 313 313 312 313 313 314 314 313
318 316 315 314 313 314 316 315 313 315 317 321 322 315 313 314 314 314 314 315 317 318 320 319 325 314 316 311 313 317 313 315 318 318 314 314 314 313 313 313 314 314 314 314
316 314 314 314 314 315 315 321 314 313 313 324 325 313 314 314 315 316 316 316 317 318 321 317 313 309 316 318 320 314 312 312 312 314 314 314 314 313 311 312 307 306 305 305
315 315 316 317 315 314 316 317 314 311 310 321 320 321 312 310 314 312 316 316 317 319 315 311 314 315 315 313 322 310 307 307 308 309 312 315 310 309 304 303 302 301 300 299
315 315 314 313 314 315 316 309 310 309 311 317 318 316 319 311 315 313 309 314 316 313 311 309 312 310 313 319 307 305 304 305 310 305 306 307 303 303 303 302 300 298 296 294
311 311 311 311 312 317 315 310 311 309 314 318 310 322 320 309 308 308 310 311 313 310 315 314 315 312 313 304 302 302 301 302 304 303 303 303 303 300 299 297 296 295 295 294
309 309 313 315 310 308 308 311 316 314 311 310 307 308 313 311 311 310 312 310 312 315 314 309 315 305 300 299 299 299 300 302 304 304 300 299 298 297 296 296 296 296 296 296
309 312 312 309 307 310 310 311 313 313 311 308 307 310 311 307 313 311 307 312 310 316 314 315 313 306 300 299 298 298 299 299 298 298 297 296 297 297 297 297 297 296 295 295
309 310 307 306 308 311 310 309 308 311 311 306 310 308 308 306 306 310 307 312 309 317 309 313 313 301 299 298 298 298 297 298 298 297 297 296 296 296 296 295 294 292 291 290
307 307 305 311 307 313 318 313 312 311 304 302 304 306 305 306 306 307 310 314 314 307 312 312 305 300 298 297 298 297 296 296 295 294 294 293 293 292 292 292 291 290 292 291
305 309 308 310 311 305 306 308 307 299 300 302 305 304 309 304 306 307 314 304 305 312 313 309 301 299 298 296 297 296 295 292 293 294 293 292 291 291 290 289 289 289 290 290
302 304 304 303 299 299 298 297 298 297 297 300 303 304 307 306 307 305 306 308 310 309 309 302 299 297 297 297 296 295 294 291 294 294 291 290 290 291 291 290 288 287 286 286
299 300 302 299 301 300 299 298 298 297 297 298 300 304 308 306 307 309 310 309 309 305 302 298 297 296 296 296 294 295 295 294 293 292 292 290 289 289 289 287 285 284 284 284
300 300 296 297 299 299 298 297 297 295 299 303 305 308 305 303 306 306 305 306 304 301 299 297 296 296 296 296 296 292 292 292 292 290 289 288 286 285 285 284 283 282 283 282

GFSNW_925_thetae_027.txt.gz
Theta_e
302 303 304 307 310 314 310 317 322 322 322 323 326 326 323 320 321 324 320 321 319 320 320 320 319 321 321 322 322 322 322 321 324 323 322 322 322 323 323 323 321 322 326 321
301 302 304 307 311 312 312 321 324 325 322 328 332 324 322 321 322 323 322 320 321 320 320 321 319 319 322 322 323 322 323 321 324 324 323 322 320 320 320 320 321 321 328 320
301 302 303 307 310 311 314 321 325 326 325 324 326 325 322 322 322 322 322 319 323 323 323 324 323 323 322 321 322 313 318 321 323 325 323 322 323 321 320 320 321 320 319 318
301 303 301 305 310 311 314 323 322 323 328 329 327 323 321 321 323 323 323 324 323 323 324 325 325 325 322 321 317 320 323 324 322 322 321 320 320 319 320 320 319 320 319 316
300 303 302 306 310 310 314 323 323 322 325 325 324 321 322 320 322 324 324 323 321 322 323 324 324 325 324 324 323 324 322 323 323 324 322 320 320 319 318 318 318 317 317 317
303 303 302 303 311 310 314 320 321 324 325 327 324 325 321 320 323 325 324 323 323 324 326 326 325 325 324 323 325 325 324 323 322 319 318 318 322 321 319 318 318 318 320 318
302 301 301 303 311 310 315 320 322 324 328 326 322 320 320 321 324 325 324 324 325 325 322 322 322 322 321 321 322 323 324 323 323 322 318 326 315 315 315 316 317 317 316 316
302 300 300 301 310 310 317 321 323 325 329 322 319 319 320 320 324 325 325 323 323 322 323 324 324 325 325 320 318 317 319 321 322 329 319 316 315 313 314 315 315 315 315 314
302 302 302 307 311 310 313 323 323 324 329 323 318 318 318 324 327 327 322 321 320 320 326 328 326 326 323 324 323 316 316 318 320 319 329 329 319 314 314 315 316 314 314 314
303 304 308 310 309 310 311 323 319 320 321 318 318 319 320 321 324 327 323 321 321 320 331 333 331 326 321 323 324 323 324 323 327 323 327 323 316 314 315 317 319 316 315 315
306 307 310 309 309 310 310 324 322 322 323 321 321 319 319 320 324 329 324 324 323 324 329 335 330 332 324 322 319 322 323 327 326 326 325 325 314 315 317 319 315 315 316 316
309 310 308 309 310 310 312 323 322 325 324 324 322 321 321 321 322 324 323 324 325 325 327 331 331 326 320 326 323 318 323 322 323 321 321 317 314 314 314 315 315 315 315 315
307 308 309 310 310 312 315 323 324 323 326 324 323 323 320 320 322 322 325 326 324 325 326 327 329 327 326 326 326 323 319 317 319 318 315 314 314 314 314 314 315 315 315 316
308 309 310 310 312 313 315 321 323 323 325 326 325 319 320 318 320 320 323 324 322 323 324 329 320 327 322 327 323 321 319 317 317 318 316 315 315 315 315 315 316 316 316 316
310 310 311 313 313 313 316 319 317 320 322 325 325 319 317 318 319 319 319 321 322 323 326 322 330 322 323 320 320 322 317 318 320 320 317 317 317 317 315 316 315 313 313 313
313 313 313 313 313 313 318 323 316 314 321 326 327 319 319 319 319 319 320 322 322 323 327 324 320 316 323 325 323 318 315 314 313 317 315 316 316 312 310 309 308 307 306 306
315 314 314 314 313 314 319 318 317 314 319 324 325 324 318 317 319 319 321 321 322 324 323 321 322 319 320 320 325 315 311 310 312 311 313 317 310 310 308 306 303 300 298 297
316 314 314 313 314 313 317 308 310 313 316 321 323 322 323 317 322 320 317 321 323 319 316 315 319 317 320 324 313 310 308 311 309 308 309 308 308 306 304 301 299 298 297 295
312 313 314 314 317 320 315 309 313 311 317 322 313 322 321 315 314 314 315 318 320 315 318 318 319 315 320 309 308 307 306 308 308 307 307 304 303 300 299 299 298 298 298 298
313 315 316 320 314 309 311 313 319 318 315 314 313 315 320 316 315 314 314 314 317 317 315 314 319 309 302 301 302 303 304 306 305 302 301 300 299 299 299 300 298 298 298 298
316 318 314 310 308 314 315 315 318 318 317 311 310 315 315 311 317 312 311 315 314 317 317 317 316 311 302 300 301 301 301 301 302 301 299 300 300 299 299 298 297 296 294 294
312 313 310 310 313 315 314 313 312 315 314 308 311 310 310 309 310 312 312 312 312 320 313 319 315 303 300 299 300 300 300 300 300 299 299 298 298 297 296 294 294 293 293 292
311 312 308 314 311 317 312 316 312 310 307 305 309 309 310 308 310 311 312 316 317 312 315 314 307 301 299 299 300 299 298 298 298 297 295 294 294 293 293 293 292 293 293 292
309 312 311 312 311 307 306 308 307 300 302 307 309 307 311 308 309 311 312 306 310 313 316 314 302 300 298 299 299 298 296 295 296 295 294 293 293 293 291 290 290 289 290 289
304 305 306 304 300 299 298 298 300 299 300 305 309 308 311 309 311 311 309 309 314 313 312 305 299 298 299 298 298 297 295 293 296 295 292 292 293 293 292 289 288 286 286 285
300 301 302 300 302 301 299 299 299 297 299 300 307 309 312 309 310 309 315 314 314 308 304 300 298 297 298 298 297 296 297 296 295 294 293 291 290 291 290 287 285 284 284 283
302 301 297 300 299 299 298 297 297 295 300 304 306 312 309 306 309 309 308 310 306 302 300 298 297 297 298 297 296 294 294 294 294 293 292 290 288 286 286 286 284 284 283 282

GFSNW_925_thetae_030.txt.gz
Theta_e
300 304 304 304 304 308 312 314 317 319 320 321 319 328 324 321 323 320 321 320 319 319 320 320 318 319 320 321 321 322 321 322 325 322 322 322 321 323 322 334 324 327 332 326
299 303 303 304 305 308 311 315 320 321 321 321 324 324 324 322 322 322 323 321 320 320 320 320 319 319 324 324 323 323 323 322 325 322 323 323 321 320 320 322 325 327 336 325
298 303 302 304 305 309 312 317 322 325 325 319 322 326 324 323 323 321 322 321 320 321 320 321 321 321 323 323 323 316 323 322 320 326 322 322 324 322 319 320 331 325 323 319
298 303 301 303 305 308 312 318 321 323 326 326 324 327 323 323 323 321 322 322 320 323 324 321 323 322 325 322 318 320 322 321 320 320 321 322 322 321 320 319 321 323 323 318
302 302 302 303 305 307 310 319 321 324 322 323 324 325 326 323 322 322 324 322 321 323 323 323 323 323 325 323 324 323 323 326 323 325 323 322 322 321 320 319 318 318 318 318
301 301 301 302 304 306 311 314 320 323 323 324 325 328 328 324 323 323 323 323 323 324 324 326 326 327 326 324 326 326 326 328 328 326 320 319 321 320 319 318 318 319 320 320
300 301 302 303 305 306 311 314 322 324 326 323 325 326 325 322 323 326 324 324 325 326 324 325 324 324 324 325 325 325 327 328 331 331 319 324 317 317 315 316 316 316 316 316
300 300 302 303 303 305 309 315 321 323 326 324 323 327 326 322 322 325 324 326 326 326 326 328 327 328 323 322 320 321 323 326 329 331 324 319 317 315 315 316 315 315 315 314
300 300 302 302 302 304 308 312 319 324 327 327 323 323 324 324 328 328 325 324 326 327 330 335 330 331 324 323 322 317 317 323 329 325 331 329 321 315 315 315 319 315 315 316
300 301 302 302 302 303 302 310 313 323 324 324 322 323 324 325 329 328 326 323 324 324 337 329 337 331 322 328 328 322 325 327 326 326 328 326 318 315 315 320 324 317 316 316
301 302 302 301 301 302 302 309 312 320 325 324 324 322 322 324 328 330 327 326 326 332 332 337 336 334 330 325 321 324 325 330 325 330 325 326 315 315 317 321 318 317 316 317
302 302 303 302 304 303 306 311 313 315 324 327 324 322 322 323 325 329 326 328 326 328 331 335 337 325 321 330 329 319 325 325 330 326 326 320 316 315 315 316 316 316 317 317
300 303 303 304 306 307 309 311 313 318 327 325 324 325 322 322 324 325 329 329 326 328 329 333 333 322 332 326 332 327 320 319 324 322 316 316 316 315 315 316 317 316 317 317
303 304 304 305 308 310 310 311 313 323 326 323 326 321 321 320 322 324 326 328 328 330 331 335 321 326 327 333 328 328 322 320 319 319 318 317 317 318 318 317 317 315 315 314
305 307 308 310 309 309 310 311 315 320 323 325 325 320 320 320 322 322 324 327 329 330 329 317 333 328 329 326 326 329 320 319 326 326 319 319 319 314 314 312 311 310 310 307
308 308 308 308 310 310 311 322 320 320 323 327 328 320 321 320 321 321 324 325 327 327 330 328 325 320 328 325 329 319 316 316 315 318 315 316 314 311 309 306 305 304 304 302
308 308 309 310 311 311 318 318 316 320 322 327 323 322 319 321 321 322 322 323 325 326 327 328 325 321 324 320 330 317 313 312 314 312 313 313 312 310 306 303 301 300 299 298
309 309 311 312 312 314 317 311 313 315 319 325 322 317 323 319 325 323 320 326 325 322 320 320 326 319 326 327 316 312 311 312 310 310 310 309 306 304 303 301 300 299 298 298
311 312 312 313 315 320 315 312 316 315 318 324 314 322 321 318 317 316 318 321 320 317 319 323 321 318 322 315 312 310 310 311 309 307 306 304 303 302 301 300 300 299 299 298
312 313 316 315 316 311 312 315 319 321 319 316 316 318 321 317 316 315 316 316 317 318 317 316 318 311 305 305 306 306 306 308 305 304 303 302 301 300 300 299 299 297 297 296
317 320 314 312 311 315 316 314 317 317 318 311 313 317 318 313 317 313 313 314 316 319 318 318 316 313 304 303 303 303 303 305 304 302 301 301 300 299 299 298 296 294 294 293
315 314 312 312 314 315 312 314 312 315 315 308 312 312 311 311 313 313 313 312 314 319 313 317 317 307 302 302 302 302 302 301 301 300 299 299 298 297 296 295 294 294 292 290
311 311 308 313 309 313 318 315 314 311 306 305 309 309 310 309 310 311 312 312 318 314 315 314 309 302 301 301 301 301 300 300 299 298 297 295 294 294 294 292 292 293 292 288
310 309 308 308 310 305 305 306 305 300 301 305 307 308 310 308 308 311 311 307 310 314 314 314 303 301 300 301 300 299 298 296 296 295 294 294 293 291 290 290 289 287 287 286
304 305 306 303 299 299 298 298 300 298 301 305 308 310 310 308 309 310 307 310 313 313 313 305 300 299 300 300 299 296 296 294 296 294 293 293 292 292 290 287 286 285 284 283
299 299 302 300 302 300 299 298 299 297 299 303 309 310 310 309 309 310 315 315 314 308 304 299 298 299 299 299 297 296 296 296 295 293 292 291 291 291 288 285 284 284 283 282
301 300 296 299 298 299 298 297 297 297 300 305 306 310 308 306 310 309 308 308 305 301 298 298 298 298 299 298 296 296 296 295 295 293 292 290 288 287 286 286 284 284 283 282

GFSNW_925_thetae_033.txt.gz
Theta_e
297 301 303 305 304 303 309 314 317 314 314 318 317 320 322 321 323 324 324 321 320 318 318 320 317 318 325 318 321 321 322 324 326 327 321 320 320 321 323 318 320 321 317 319
299 300 300 304 304 306 309 315 316 315 314 315 317 317 321 323 324 323 323 322 321 320 318 322 319 324 323 323 322 322 323 320 319 318 321 322 321 319 318 321 319 321 316 318
299 299 299 303 304 305 310 315 317 319 318 312 316 316 319 323 322 323 322 322 322 320 319 320 320 324 323 323 320 315 322 321 319 318 319 321 323 321 319 318 317 318 318 319
297 298 300 300 304 306 310 314 316 319 321 320 316 317 318 324 325 323 322 322 322 320 321 321 322 325 323 323 317 320 320 320 319 318 320 322 322 321 320 318 319 318 318 319
297 298 297 299 304 306 309 315 316 320 323 320 321 317 320 323 323 324 322 323 321 320 322 322 321 324 323 323 321 321 320 322 321 322 322 319 319 319 318 318 318 317 317 317
297 298 299 298 304 305 308 310 312 318 320 321 321 318 321 323 322 322 321 321 321 323 324 323 324 323 321 322 322 321 322 322 318 321 315 315 313 315 316 318 318 316 316 315
298 299 300 299 303 304 308 308 313 318 320 323 321 318 318 323 322 324 322 321 322 323 321 321 320 319 321 324 324 323 323 322 315 315 313 310 315 314 313 313 313 312 312 311
298 298 299 301 304 303 307 309 313 319 310 321 320 317 321 323 323 323 323 325 322 321 323 322 321 317 314 320 320 320 323 317 317 314 315 316 316 315 316 314 314 313 313 312
301 301 302 303 302 303 306 305 307 315 322 322 319 317 321 323 324 325 325 323 321 324 324 316 322 321 321 322 318 318 318 318 311 315 315 311 316 314 314 313 315 314 314 313
299 302 302 302 302 303 306 305 306 310 321 322 319 318 320 323 324 324 324 324 323 323 312 319 316 317 322 322 320 316 313 313 312 309 311 315 319 314 314 312 313 314 313 314
300 300 300 301 302 302 301 303 305 310 319 322 321 319 321 322 323 322 323 324 321 321 318 317 316 313 316 319 323 319 316 317 311 315 317 319 315 314 312 316 314 313 313 314
299 300 300 301 301 301 302 303 304 306 313 319 320 322 324 324 321 322 320 323 322 323 323 319 315 319 313 317 316 320 319 320 317 317 316 316 313 312 313 312 313 314 314 314
299 300 301 302 302 302 302 303 305 309 314 314 320 322 320 324 323 321 321 323 323 324 323 320 318 317 313 313 315 318 319 318 317 316 317 315 313 316 315 315 314 313 308 308
300 301 301 302 302 301 301 303 305 311 312 315 323 321 320 321 324 325 325 325 326 324 322 314 311 315 319 313 316 318 317 316 317 316 316 317 315 314 312 310 310 306 304 303
301 302 302 302 302 302 303 304 306 311 316 319 321 320 320 321 323 325 326 324 324 321 314 306 314 318 316 314 314 316 316 317 312 313 317 314 312 309 308 307 305 305 303 300
300 300 301 303 303 306 307 310 310 310 313 317 316 318 320 321 321 321 322 322 322 323 319 314 317 317 313 311 310 315 313 313 314 315 312 310 307 304 303 303 302 301 300 299
303 304 303 304 306 309 311 312 314 312 310 318 314 315 318 319 319 316 318 320 321 321 320 314 315 315 315 308 312 313 312 311 311 311 311 309 307 303 301 300 299 297 297 296
304 305 306 307 309 310 311 314 313 314 319 316 314 314 317 318 318 313 314 318 316 314 313 311 311 312 306 310 312 311 311 310 308 306 307 304 302 301 300 299 298 297 297 296
306 307 308 309 311 313 315 313 316 315 317 311 307 315 317 315 312 310 313 313 312 314 310 311 311 307 311 312 310 309 309 309 306 304 303 302 301 300 299 298 297 297 296 296
309 311 314 311 315 314 313 315 311 310 311 308 310 312 314 314 307 308 308 306 310 315 311 310 310 307 305 304 304 305 306 305 303 301 300 299 299 299 299 298 296 295 294 292
314 313 310 311 313 313 308 306 307 308 307 304 308 312 314 310 310 309 306 309 308 312 310 310 311 309 306 305 304 303 303 304 303 301 300 300 299 298 296 295 293 291 290 288
314 312 311 311 312 306 306 306 305 308 310 304 308 308 310 306 310 305 307 309 306 314 309 310 312 305 302 302 302 302 302 301 300 300 299 298 297 295 294 293 292 290 288 287
310 307 304 310 304 309 310 309 309 308 303 303 304 306 304 305 306 306 308 313 312 305 310 310 305 302 301 301 301 300 300 299 298 296 294 294 293 292 292 291 290 287 285 285
304 304 305 306 306 302 302 303 303 299 299 300 303 303 304 302 305 305 309 305 306 311 308 305 302 301 301 300 300 299 297 294 294 293 292 290 290 289 288 287 287 286 285 284
300 300 303 301 299 298 298 297 298 297 298 300 303 303 305 305 306 305 306 309 310 309 309 303 300 299 300 298 296 295 293 292 293 293 292 290 289 287 286 285 284 283 282 283
298 297 301 299 301 300 298 298 299 297 297 299 300 305 307 307 306 309 310 307 307 305 300 298 298 298 297 296 295 296 295 293 292 292 291 290 288 286 285 284 283 282 281 282
298 298 295 297 298 298 297 296 297 296 299 303 302 306 306 303 307 306 303 303 301 298 297 297 297 298 296 295 294 294 294 293 291 291 289 288 287 285 284 283 284 282 281 281